Regional Weather Roundup
Issued by NWS

Home | Current Version | Previous Version | Graphics & Text | Print | Product List | Glossary Off
Versions: 1 2 3 4 5 6 7 8 9 10 11 12 13 14 15 16 17 18 19 20 21 22 23 24 25 26 27 28 29 30 31 32 33 34 35 36 37 38 39 40 41 42 43 44 45 46 47 48 49 50

000
ASUS43 KLSX 141259
RWRMO

WEATHER SUMMARY FOR MISSOURI
NATIONAL WEATHER SERVICE SPRINGFIELD MO
800 AM CDT MON JUL 14 2014

NOTE: "FAIR" INDICATES FEW OR NO CLOUDS BELOW 12,000 FEET WITH NO
       SIGNIFICANT WEATHER AND/OR OBSTRUCTIONS TO VISIBILITY.
       CURRENT SKY AND/OR WEATHER CONDITIONS ARE NOT AVAILABLE FOR
       CHILLICOTHE AND FARMINGTON.

MOZ001>031-035>038-043-044-053-054-141400-
...NORTHERN AND WESTERN MISSOURI...

CITY           SKY/WX    TMP DP  RH WIND       PRES   REMARKS
KANSAS CTY INT PTSUNNY   73  68  84 W7        30.00R
KANSAS C DTWN  SUNNY     75  69  81 SW7       29.98S
LEE`S SUMMIT   SUNNY     73  68  84 SW8       30.00R
ST JOSEPH      CLOUDY    70  66  87 N13G20    30.01R
CHILLICOTHE      N/A     74  69  85 NW3       29.98R
KIRKSVILLE     MOSUNNY   73  69  87 W8        29.96R

$$
MOZ066>068-077>081-088>096-101>105-141400-
...SOUTHWEST MISSOURI...

CITY           SKY/WX    TMP DP  RH WIND       PRES   REMARKS
SPRINGFIELD    MOSUNNY   73  72  96 CALM      30.00R
JOPLIN         MOSUNNY   75  72  90 CALM      30.00R

$$
MOZ032>034-039>042-045>050-055>058-069>072-141400-
...CENTRAL MISSOURI...

CITY           SKY/WX    TMP DP  RH WIND       PRES   REMARKS
COLUMBIA       PTSUNNY   71  71 100 W6        29.97R FOG
JEFFERSON CITY CLOUDY    72  71  97 W3        29.97R FOG
ROLLA          FOG       70  70 100 SW6       29.98R VSB<1/4
SEDALIA        SUNNY     75  71  87 W5        29.99R
OSAGE BEACH    CLOUDY    72  70  94 W5        29.98R VSB<1/4

$$
MOZ051-052-059>065-141400-
...EAST CENTRAL MISSOURI...

CITY           SKY/WX    TMP DP  RH WIND       PRES   REMARKS
ST LOUIS INTL  CLOUDY    75  72  90 SW5       29.94S FOG
SPIRIT OF STL  CLOUDY    73  71  93 W3        29.94R FOG
ST CHARLES     CLOUDY    73  71  93 W3        29.93R FOG

$$
MOZ072>076-082>087-097>100-106>115-141400-
...SOUTH CENTRAL AND SOUTHEAST MISSOURI...

CITY           SKY/WX    TMP DP  RH WIND       PRES   REMARKS
CAPE GIRARDEAU PTSUNNY   73  70  90 W3        29.95S
FARMINGTON     MOSUNNY   72  72 100 SW5       29.99R
POPLAR BLUFF   CLOUDY    74  70  87 S3        29.95S
WEST PLAINS    CLOUDY    72  68  87 W3        30.00R

$$


USA.gov is the U.S. government's official web portal to all federal, state and local government web resources and services.